Location: Springfield
(37.2150°N, 93.2980°W)
Time: 11:07:11
(UTC-05:00)

N. Korean satellite - Visible Passes

Search period start: 18 October 2019 00:00
Search period end: 28 October 2019 00:00
Orbit: 455 x 508 km, 97.2° (Epoch: 18 October)

Date Brightness Start Highest point End Pass type
(mag) Time Alt. Az. Time Alt. Az. Time Alt. Az.
18 Oct 9.5 19:06:27 10° SSW 19:09:08 22° W 19:11:51 10° NW visible
19 Oct 8.9 06:34:03 10° NE 06:37:16 29° E 06:40:29 10° SSE visible
20 Oct 10.2 06:09:51 10° ENE 06:11:51 14° E 06:13:52 10° SE visible
21 Oct 10.2 19:25:07 10° WSW 19:26:42 13° W 19:28:18 10° WNW visible
22 Oct 7.6 06:51:13 10° NNE 06:54:47 52° E 06:58:23 10° S visible
22 Oct 9.0 18:58:18 10° SSW 19:01:15 27° W 19:04:15 10° NW visible
23 Oct 9.4 06:26:25 10° NE 06:29:25 24° E 06:32:26 10° SSE visible
24 Oct 10.4 06:02:43 10° ENE 06:03:58 11° E 06:05:14 10° ESE visible
25 Oct 9.9 19:16:34 10° SW 19:18:46 16° W 19:21:01 10° NW visible
26 Oct 8.2 06:43:26 10° NNE 06:46:57 40° E 06:50:26 10° S visible
26 Oct 8.4 18:50:11 10° SSW 18:53:20 35° W 18:56:34 10° NNW visible
27 Oct 9.7 06:18:49 10° NE 06:21:32 19° E 06:24:15 10° SE visible
